Location: Colossi of Memnon
(25.7167°N, 32.6167°E)
Time: 06:22:03
(UTC+00:00)

X-37B - Pass Details

Date: 05 March 2021
Orbit: 380 x 394 km, 45.0° (Epoch: 07 April)

Event Time Altitude Azimuth Distance (km) Brightness Sun altitude
Exits shadow 02:16:04 20° 56° (NE) 954 3.2 -26.2°
Drops below altitude 10° 02:17:52 10° 88° (E) 1,413 4.4 -25.8°
Sets 02:20:13 0° 104° (ESE) 2,262 5.6 -25.3°
